| time (UTC) | temp C | wind direction | speed KPH | gust KPH | rain 1hr cm | rain 24hr cm | rain mn cm | humidity % | barometer mb |
| 20260508063531 | 19 | 37 | 3.2 | 8.0 | 0.00 | 0.00 | 0.00 | 66 | 1018.8 |
| 20260508063041 | 19 | 49 | 1.6 | 6.4 | 0.00 | 0.00 | 0.00 | 67 | 1018.8 |
| 20260508062529 | 19 | 0 | 0.0 | 6.4 | 0.00 | 0.00 | 0.00 | 67 | 1018.8 |
| 20260508062032 | 19 | 52 | 3.2 | 8.0 | 0.00 | 0.00 | 0.00 | 68 | 1018.7 |
| 20260508061549 | 19 | 49 | 4.8 | 8.0 | 0.00 | 0.00 | 0.00 | 68 | 1018.8 |
| 20260508061032 | 19 | 62 | 3.2 | 8.0 | 0.00 | 0.00 | 0.00 | 66 | 1018.7 |
| 20260508060531 | 18 | 0 | 1.6 | 4.8 | 0.00 | 0.00 | 0.00 | 66 | 1018.7 |
| 20260508060045 | 18 | 40 | 0.0 | 4.8 | 0.00 | 0.00 | 0.00 | 68 | 1018.7 |
| 20260508055530 | 18 | 40 | 0.0 | 4.8 | 0.00 | 0.00 | 0.00 | 69 | 1018.6 |
| 20260508055030 | 18 | 40 | 0.0 | 4.8 | 0.00 | 0.00 | 0.00 | 70 | 1018.6 |
| 20260508054544 | 18 | 0 | 0.0 | 8.0 | 0.00 | 0.00 | 0.00 | 70 | 1018.6 |
| 20260508054033 | 18 | 40 | 1.6 | 8.0 | 0.00 | 0.00 | 0.00 | 70 | 1018.6 |
| 20260508053531 | 18 | 43 | 3.2 | 8.0 | 0.00 | 0.00 | 0.00 | 69 | 1018.5 |
| 20260508053042 | 18 | 37 | 3.2 | 8.0 | 0.00 | 0.00 | 0.00 | 67 | 1018.5 |
| 20260508052531 | 18 | 0 | 1.6 | 6.4 | 0.00 | 0.00 | 0.00 | 63 | 1018.6 |
| 20260508052034 | 18 | 61 | 1.6 | 6.4 | 0.00 | 0.00 | 0.00 | 63 | 1018.6 |
| 20260508051550 | 18 | 60 | 1.6 | 6.4 | 0.00 | 0.00 | 0.00 | 63 | 1018.6 |
| 20260508051031 | 17 | 60 | 3.2 | 8.0 | 0.00 | 0.00 | 0.00 | 63 | 1018.5 |
| 20260508050531 | 17 | 0 | 3.2 | 8.0 | 0.00 | 0.00 | 0.00 | 63 | 1018.6 |
| 20260508050045 | 17 | 63 | 0.0 | 6.4 | 0.00 | 0.00 | 0.00 | 65 | 1018.7 |
| 20260508045530 | 17 | 63 | 1.6 | 6.4 | 0.00 | 0.00 | 0.00 | 65 | 1018.6 |
| 20260508045030 | 17 | 64 | 1.6 | 8.0 | 0.00 | 0.00 | 0.00 | 65 | 1018.6 |
| 20260508044543 | 17 | 60 | 1.6 | 8.0 | 0.00 | 0.00 | 0.00 | 63 | 1018.6 |
| 20260508044042 | 17 | 67 | 1.6 | 6.4 | 0.00 | 0.00 | 0.00 | 62 | 1018.5 |
| 20260508043530 | 17 | 0 | 3.2 | 6.4 | 0.00 | 0.00 | 0.00 | 59 | 1018.6 |
| 20260508043046 | 17 | 0 | 0.0 | 4.8 | 0.00 | 0.00 | 0.00 | 60 | 1018.4 |
| 20260508042531 | 17 | 80 | 1.6 | 6.4 | 0.00 | 0.00 | 0.00 | 59 | 1018.4 |
| 20260508042030 | 16 | 0 | 3.2 | 9.7 | 0.00 | 0.00 | 0.00 | 59 | 1018.4 |
| 20260508041540 | 16 | 87 | 3.2 | 9.7 | 0.00 | 0.00 | 0.00 | 59 | 1018.4 |
| 20260508041030 | 16 | 81 | 3.2 | 6.4 | 0.00 | 0.00 | 0.00 | 63 | 1018.5 |
| 20260508040532 | 15 | 74 | 3.2 | 6.4 | 0.00 | 0.00 | 0.00 | 67 | 1018.4 |
| 20260508040049 | 15 | 74 | 3.2 | 6.4 | 0.00 | 0.00 | 0.00 | 68 | 1018.4 |
| 20260508035532 | 15 | 74 | 1.6 | 6.4 | 0.00 | 0.00 | 0.00 | 69 | 1018.3 |
| 20260508035032 | 15 | 73 | 1.6 | 4.8 | 0.00 | 0.00 | 0.00 | 70 | 1018.4 |
| 20260508034549 | 15 | 73 | 1.6 | 6.4 | 0.00 | 0.00 | 0.00 | 70 | 1018.5 |
| 20260508034033 | 15 | 73 | 3.2 | 6.4 | 0.00 | 0.00 | 0.00 | 70 | 1018.5 |
| 20260508033531 | 15 | 75 | 3.2 | 6.4 | 0.00 | 0.00 | 0.00 | 69 | 1018.5 |
| 20260508033043 | 15 | 73 | 3.2 | 6.4 | 0.00 | 0.00 | 0.00 | 68 | 1018.5 |
| 20260508032531 | 15 | 71 | 3.2 | 6.4 | 0.00 | 0.00 | 0.00 | 66 | 1018.3 |
| 20260508032031 | 15 | 63 | 0.0 | 1.6 | 0.00 | 0.00 | 0.00 | 66 | 1018.4 |
| 20260508031543 | 15 | 0 | 0.0 | 6.4 | 0.00 | 0.00 | 0.00 | 66 | 1018.4 |
| 20260508031030 | 15 | 0 | 0.0 | 6.4 | 0.00 | 0.00 | 0.00 | 66 | 1018.3 |
| 20260508030531 | 15 | 63 | 3.2 | 6.4 | 0.00 | 0.00 | 0.00 | 67 | 1018.3 |
| 20260508030045 | 15 | 63 | 1.6 | 6.4 | 0.00 | 0.00 | 0.00 | 69 | 1018.3 |
| 20260508025532 | 15 | 62 | 4.8 | 6.4 | 0.00 | 0.00 | 0.00 | 71 | 1018.3 |
| 20260508025031 | 15 | 61 | 3.2 | 6.4 | 0.00 | 0.00 | 0.00 | 71 | 1018.4 |
| 20260508024550 | 15 | 62 | 3.2 | 6.4 | 0.00 | 0.00 | 0.00 | 71 | 1018.4 |
| 20260508024030 | 15 | 71 | 3.2 | 6.4 | 0.00 | 0.00 | 0.00 | 68 | 1018.4 |
| 20260508023533 | 15 | 0 | 1.6 | 6.4 | 0.00 | 0.00 | 0.00 | 67 | 1018.4 |
| 20260508023049 | 15 | 84 | 3.2 | 6.4 | 0.00 | 0.00 | 0.00 | 68 | 1018.4 |
| 20260508022530 | 15 | 84 | 3.2 | 6.4 | 0.00 | 0.00 | 0.00 | 69 | 1018.4 |
| 20260508022031 | 15 | 84 | 1.6 | 6.4 | 0.00 | 0.00 | 0.00 | 70 | 1018.5 |
| 20260508021548 | 15 | 84 | 3.2 | 6.4 | 0.00 | 0.00 | 0.00 | 71 | 1018.5 |
| 20260508021030 | 15 | 86 | 3.2 | 9.7 | 0.00 | 0.00 | 0.00 | 73 | 1018.6 |
| 20260508020530 | 15 | 89 | 3.2 | 9.7 | 0.00 | 0.00 | 0.00 | 75 | 1018.7 |
| 20260508020041 | 15 | 90 | 3.2 | 9.7 | 0.00 | 0.00 | 0.00 | 76 | 1018.7 |
| 20260508015531 | 14 | 0 | 3.2 | 9.7 | 0.00 | 0.00 | 0.00 | 75 | 1018.7 |
| 20260508015032 | 14 | 94 | 4.8 | 9.7 | 0.00 | 0.00 | 0.00 | 76 | 1018.6 |
| 20260508014549 | 14 | 146 | 1.6 | 8.0 | 0.00 | 0.00 | 0.00 | 78 | 1018.6 |
| 20260508014031 | 14 | 157 | 0.0 | 6.4 | 0.00 | 0.00 | 0.00 | 77 | 1018.8 |
| 20260508013530 | 14 | 159 | 3.2 | 6.4 | 0.00 | 0.00 | 0.00 | 78 | 1018.7 |
| 20260508013047 | 14 | 163 | 3.2 | 6.4 | 0.00 | 0.00 | 0.00 | 78 | 1018.7 |
| 20260508012532 | 14 | 169 | 1.6 | 3.2 | 0.00 | 0.00 | 0.00 | 76 | 1018.8 |
| 20260508012031 | 14 | 0 | 0.0 | 0.0 | 0.00 | 0.00 | 0.00 | 75 | 1018.9 |
| 20260508011547 | 14 | 0 | 0.0 | 0.0 | 0.00 | 0.00 | 0.00 | 73 | 1018.9 |
| 20260508011031 | 14 | 0 | 0.0 | 1.6 | 0.00 | 0.00 | 0.00 | 72 | 1018.9 |
| 20260508010530 | 14 | 0 | 0.0 | 1.6 | 0.00 | 0.00 | 0.00 | 71 | 1018.9 |
| 20260508010044 | 15 | 0 | 0.0 | 8.0 | 0.00 | 0.00 | 0.00 | 71 | 1018.8 |
| 20260508005534 | 15 | 0 | 0.0 | 8.0 | 0.00 | 0.00 | 0.00 | 71 | 1018.9 |
| 20260508005029 | 15 | 0 | 0.0 | 4.8 | 0.00 | 0.00 | 0.00 | 74 | 1018.6 |
| 20260508004542 | 15 | 79 | 1.6 | 12.9 | 0.00 | 0.00 | 0.00 | 74 | 1018.6 |
| 20260508004033 | 15 | 80 | 1.6 | 12.9 | 0.00 | 0.00 | 0.00 | 74 | 1018.6 |
| 20260508003532 | 15 | 59 | 6.4 | 12.9 | 0.00 | 0.00 | 0.00 | 75 | 1018.7 |
| 20260508003057 | 15 | 70 | 4.8 | 8.0 | 0.00 | 0.00 | 0.00 | 73 | 1018.7 |
| 20260508002531 | 15 | 80 | 0.0 | 4.8 | 0.00 | 0.00 | 0.00 | 72 | 1018.7 |
| 20260508002034 | 15 | 0 | 1.6 | 4.8 | 0.00 | 0.00 | 0.00 | 72 | 1018.6 |
| 20260508001547 | 15 | 80 | 3.2 | 4.8 | 0.00 | 0.00 | 0.00 | 71 | 1018.6 |
| 20260508001031 | 15 | 79 | 3.2 | 4.8 | 0.00 | 0.00 | 0.00 | 70 | 1018.7 |
| 20260508000532 | 15 | 80 | 1.6 | 4.8 | 0.00 | 0.00 | 0.00 | 71 | 1018.8 |
| 20260508000046 | 15 | 74 | 3.2 | 4.8 | 0.00 | 0.00 | 0.00 | 71 | 1018.8 |
| 20260507235530 | 15 | 75 | 1.6 | 4.8 | 0.00 | 0.00 | 0.00 | 72 | 1019.1 |
| 20260507235031 | 15 | 75 | 3.2 | 4.8 | 0.00 | 0.00 | 0.00 | 74 | 1019.0 |
| 20260507234541 | 15 | 0 | 1.6 | 4.8 | 0.00 | 0.00 | 0.00 | 77 | 1019.1 |
| 20260507234030 | 15 | 0 | 0.0 | 4.8 | 0.00 | 0.00 | 0.00 | 76 | 1019.2 |
| 20260507233533 | 15 | 75 | 1.6 | 4.8 | 0.00 | 0.00 | 0.00 | 76 | 1019.2 |
| 20260507233042 | 15 | 75 | 0.0 | 1.6 | 0.00 | 0.00 | 0.00 | 75 | 1019.3 |
| 20260507232531 | 15 | 0 | 0.0 | 0.0 | 0.00 | 0.00 | 0.00 | 75 | 1019.2 |
| 20260507232030 | 15 | 0 | 0.0 | 0.0 | 0.00 | 0.00 | 0.00 | 74 | 1019.2 |
| 20260507231546 | 15 | 0 | 0.0 | 0.0 | 0.00 | 0.00 | 0.00 | 74 | 1019.2 |
| 20260507231032 | 15 | 0 | 0.0 | 0.0 | 0.00 | 0.00 | 0.00 | 73 | 1019.2 |
| 20260507230533 | 15 | 0 | 0.0 | 0.0 | 0.00 | 0.00 | 0.00 | 73 | 1019.2 |
| 20260507230044 | 15 | 0 | 0.0 | 0.0 | 0.00 | 0.00 | 0.00 | 72 | 1019.2 |
| 20260507225532 | 15 | 0 | 0.0 | 0.0 | 0.00 | 0.00 | 0.00 | 72 | 1019.3 |
| 20260507225031 | 15 | 0 | 0.0 | 0.0 | 0.00 | 0.00 | 0.00 | 71 | 1019.4 |
| 20260507224559 | 15 | 0 | 0.0 | 1.6 | 0.00 | 0.00 | 0.00 | 70 | 1019.4 |
| 20260507224030 | 15 | 0 | 0.0 | 1.6 | 0.00 | 0.00 | 0.00 | 70 | 1019.3 |
| 20260507223530 | 15 | 0 | 0.0 | 3.2 | 0.00 | 0.00 | 0.00 | 69 | 1019.3 |
| 20260507223051 | 15 | 0 | 0.0 | 3.2 | 0.00 | 0.00 | 0.00 | 68 | 1019.4 |
| 20260507222529 | 15 | 0 | 0.0 | 3.2 | 0.00 | 0.00 | 0.00 | 66 | 1019.5 |
| 20260507222032 | 15 | 0 | 0.0 | 6.4 | 0.00 | 0.00 | 0.00 | 66 | 1019.4 |
| 20260507221541 | 15 | 0 | 1.6 | 6.4 | 0.00 | 0.00 | 0.00 | 66 | 1019.5 |
| 20260507221032 | 15 | 75 | 1.6 | 4.8 | 0.00 | 0.00 | 0.00 | 64 | 1019.4 |
| 20260507220532 | 15 | 79 | 3.2 | 4.8 | 0.00 | 0.00 | 0.00 | 63 | 1019.3 |
| 20260507220046 | 15 | 82 | 1.6 | 3.2 | 0.00 | 0.00 | 0.00 | 59 | 1019.3 |
| 20260507215532 | 15 | 0 | 0.0 | 0.0 | 0.00 | 0.00 | 0.00 | 56 | 1019.4 |
| 20260507215030 | 15 | 0 | 0.0 | 0.0 | 0.00 | 0.00 | 0.00 | 54 | 1019.4 |
| 20260507214545 | 15 | 0 | 0.0 | 0.0 | 0.00 | 0.00 | 0.00 | 53 | 1019.4 |
| 20260507214030 | 15 | 0 | 0.0 | 0.0 | 0.00 | 0.00 | 0.00 | 54 | 1019.3 |
| 20260507213533 | 15 | 0 | 0.0 | 1.6 | 0.00 | 0.00 | 0.00 | 55 | 1019.3 |
| 20260507213043 | 15 | 0 | 0.0 | 1.6 | 0.00 | 0.00 | 0.00 | 54 | 1019.3 |
| 20260507212530 | 15 | 0 | 0.0 | 3.2 | 0.00 | 0.00 | 0.00 | 55 | 1019.3 |
| 20260507212030 | 15 | 0 | 0.0 | 3.2 | 0.00 | 0.00 | 0.00 | 56 | 1019.3 |
| 20260507211559 | 15 | 0 | 0.0 | 0.0 | 0.00 | 0.00 | 0.00 | 56 | 1019.4 |
| 20260507211030 | 15 | 0 | 0.0 | 0.0 | 0.00 | 0.00 | 0.00 | 56 | 1019.5 |
| 20260507210530 | 15 | 0 | 0.0 | 0.0 | 0.00 | 0.00 | 0.00 | 57 | 1019.5 |
| 20260507210042 | 15 | 0 | 0.0 | 0.0 | 0.00 | 0.00 | 0.00 | 56 | 1019.5 |
| 20260507205532 | 15 | 0 | 0.0 | 1.6 | 0.00 | 0.00 | 0.00 | 55 | 1019.5 |
| 20260507205035 | 15 | 0 | 0.0 | 1.6 | 0.00 | 0.00 | 0.00 | 57 | 1019.6 |
| 20260507204543 | 15 | 0 | 0.0 | 0.0 | 0.00 | 0.00 | 0.00 | 57 | 1019.6 |
| 20260507204030 | 16 | 0 | 0.0 | 0.0 | 0.00 | 0.00 | 0.00 | 56 | 1019.6 |
| 20260507203532 | 16 | 0 | 0.0 | 0.0 | 0.00 | 0.00 | 0.00 | 56 | 1019.7 |
| 20260507203047 | 16 | 0 | 0.0 | 0.0 | 0.00 | 0.00 | 0.00 | 56 | 1019.7 |
| 20260507202529 | 16 | 0 | 0.0 | 0.0 | 0.00 | 0.00 | 0.00 | 55 | 1019.6 |
| 20260507202030 | 16 | 0 | 0.0 | 4.8 | 0.00 | 0.00 | 0.00 | 54 | 1019.7 |
| 20260507201542 | 16 | 0 | 0.0 | 4.8 | 0.00 | 0.00 | 0.00 | 54 | 1019.6 |
| 20260507201030 | 16 | 86 | 1.6 | 4.8 | 0.00 | 0.00 | 0.00 | 53 | 1019.5 |
| 20260507200531 | 16 | 85 | 0.0 | 3.2 | 0.00 | 0.00 | 0.00 | 52 | 1019.6 |
| 20260507200044 | 16 | 82 | 0.0 | 3.2 | 0.00 | 0.00 | 0.00 | 53 | 1019.7 |
| 20260507195532 | 16 | 82 | 0.0 | 3.2 | 0.00 | 0.00 | 0.00 | 56 | 1019.4 |
| 20260507195030 | 16 | 0 | 0.0 | 3.2 | 0.00 | 0.00 | 0.00 | 58 | 1019.6 |
| 20260507194541 | 16 | 84 | 1.6 | 4.8 | 0.00 | 0.00 | 0.00 | 59 | 1019.5 |
| 20260507194030 | 16 | 84 | 0.0 | 6.4 | 0.00 | 0.00 | 0.00 | 60 | 1019.5 |
| 20260507193532 | 16 | 84 | 1.6 | 6.4 | 0.00 | 0.00 | 0.00 | 60 | 1019.6 |
| 20260507193046 | 16 | 84 | 1.6 | 6.4 | 0.00 | 0.00 | 0.00 | 62 | 1019.5 |
| 20260507192530 | 16 | 78 | 1.6 | 4.8 | 0.00 | 0.00 | 0.00 | 62 | 1019.7 |
| 20260507192032 | 16 | 78 | 1.6 | 4.8 | 0.00 | 0.00 | 0.00 | 62 | 1019.7 |
| 20260507191550 | 16 | 0 | 0.0 | 1.6 | 0.00 | 0.00 | 0.00 | 62 | 1019.7 |
| 20260507191030 | 16 | 0 | 0.0 | 1.6 | 0.00 | 0.00 | 0.00 | 61 | 1019.6 |
| 20260507190532 | 16 | 0 | 0.0 | 0.0 | 0.00 | 0.00 | 0.00 | 61 | 1019.7 |
| 20260507190043 | 17 | 0 | 0.0 | 3.2 | 0.00 | 0.00 | 0.00 | 60 | 1019.7 |
| 20260507185531 | 17 | 0 | 0.0 | 3.2 | 0.00 | 0.00 | 0.00 | 60 | 1019.7 |
| 20260507185032 | 17 | 0 | 0.0 | 0.0 | 0.00 | 0.00 | 0.00 | 60 | 1019.5 |
| 20260507184541 | 17 | 0 | 0.0 | 1.6 | 0.00 | 0.00 | 0.00 | 60 | 1019.4 |
| 20260507184030 | 17 | 0 | 0.0 | 1.6 | 0.00 | 0.00 | 0.00 | 59 | 1019.4 |
| 20260507183530 | 17 | 0 | 0.0 | 0.0 | 0.00 | 0.00 | 0.00 | 59 | 1019.4 |
| 20260507183041 | 18 | 0 | 0.0 | 0.0 | 0.00 | 0.00 | 0.00 | 59 | 1019.4 |
| 20260507182529 | 18 | 0 | 0.0 | 3.2 | 0.00 | 0.00 | 0.00 | 58 | 1019.2 |
| 20260507182030 | 18 | 0 | 0.0 | 3.2 | 0.00 | 0.00 | 0.00 | 57 | 1019.3 |
| 20260507181540 | 18 | 0 | 0.0 | 3.2 | 0.00 | 0.00 | 0.00 | 58 | 1019.3 |
| 20260507181033 | 18 | 0 | 0.0 | 1.6 | 0.00 | 0.00 | 0.00 | 56 | 1019.2 |
| 20260507180530 | 18 | 0 | 0.0 | 3.2 | 0.00 | 0.00 | 0.00 | 57 | 1019.1 |
| 20260507180048 | 18 | 0 | 0.0 | 4.8 | 0.00 | 0.00 | 0.00 | 57 | 1019.2 |
| 20260507175532 | 18 | 78 | 1.6 | 4.8 | 0.00 | 0.00 | 0.00 | 56 | 1019.0 |
| 20260507175030 | 19 | 78 | 0.0 | 3.2 | 0.00 | 0.00 | 0.00 | 56 | 1019.1 |
| 20260507174543 | 19 | 0 | 0.0 | 6.4 | 0.00 | 0.00 | 0.00 | 55 | 1019.1 |
| 20260507174030 | 19 | 0 | 0.0 | 6.4 | 0.00 | 0.00 | 0.00 | 55 | 1018.9 |
| 20260507173531 | 19 | 77 | 0.0 | 6.4 | 0.00 | 0.00 | 0.00 | 55 | 1018.9 |
| 20260507173043 | 19 | 88 | 3.2 | 8.0 | 0.00 | 0.00 | 0.00 | 55 | 1018.9 |
| 20260507172531 | 19 | 76 | 4.8 | 8.0 | 0.00 | 0.00 | 0.00 | 54 | 1018.8 |
| 20260507172030 | 19 | 49 | 3.2 | 6.4 | 0.00 | 0.00 | 0.00 | 55 | 1018.8 |
| 20260507171542 | 19 | 55 | 1.6 | 6.4 | 0.00 | 0.00 | 0.00 | 54 | 1018.7 |
| 20260507171029 | 20 | 69 | 1.6 | 4.8 | 0.00 | 0.00 | 0.00 | 53 | 1018.6 |
| 20260507170529 | 20 | 67 | 3.2 | 8.0 | 0.00 | 0.00 | 0.00 | 51 | 1018.5 |
| 20260507170042 | 20 | 67 | 3.2 | 8.0 | 0.00 | 0.00 | 0.00 | 52 | 1018.5 |
| 20260507165534 | 20 | 67 | 3.2 | 6.4 | 0.00 | 0.00 | 0.00 | 52 | 1018.5 |
| 20260507165031 | 20 | 71 | 3.2 | 6.4 | 0.00 | 0.00 | 0.00 | 51 | 1018.5 |
| 20260507164547 | 20 | 0 | 1.6 | 4.8 | 0.00 | 0.00 | 0.00 | 50 | 1018.5 |
| 20260507164029 | 20 | 0 | 1.6 | 4.8 | 0.00 | 0.00 | 0.00 | 51 | 1018.6 |
| 20260507163529 | 20 | 63 | 1.6 | 4.8 | 0.00 | 0.00 | 0.00 | 51 | 1018.6 |
| 20260507163046 | 20 | 57 | 0.0 | 4.8 | 0.00 | 0.00 | 0.00 | 52 | 1018.6 |
| 20260507162534 | 20 | 0 | 1.6 | 4.8 | 0.00 | 0.00 | 0.00 | 52 | 1018.6 |
| 20260507162032 | 20 | 0 | 0.0 | 3.2 | 0.00 | 0.00 | 0.00 | 52 | 1018.6 |
| 20260507161545 | 20 | 0 | 0.0 | 3.2 | 0.00 | 0.00 | 0.00 | 51 | 1018.6 |
| 20260507161029 | 20 | 57 | 0.0 | 4.8 | 0.00 | 0.00 | 0.00 | 51 | 1018.6 |
| 20260507160531 | 21 | 0 | 0.0 | 4.8 | 0.00 | 0.00 | 0.00 | 51 | 1018.5 |
| 20260507160045 | 21 | 66 | 0.0 | 4.8 | 0.00 | 0.00 | 0.00 | 50 | 1018.7 |
| 20260507155529 | 21 | 0 | 0.0 | 6.4 | 0.00 | 0.00 | 0.00 | 50 | 1018.6 |
| 20260507155031 | 21 | 64 | 1.6 | 6.4 | 0.00 | 0.00 | 0.00 | 50 | 1018.6 |
| 20260507154544 | 22 | 0 | 0.0 | 4.8 | 0.00 | 0.00 | 0.00 | 49 | 1018.7 |
| 20260507154032 | 22 | 22 | 0.0 | 4.8 | 0.00 | 0.00 | 0.00 | 47 | 1018.8 |
| 20260507153530 | 22 | 0 | 0.0 | 4.8 | 0.00 | 0.00 | 0.00 | 45 | 1018.8 |
| 20260507153041 | 23 | 22 | 0.0 | 3.2 | 0.00 | 0.00 | 0.00 | 44 | 1018.8 |
| 20260507152530 | 23 | 349 | 1.6 | 3.2 | 0.00 | 0.00 | 0.00 | 43 | 1018.7 |
| 20260507152031 | 23 | 0 | 0.0 | 0.0 | 0.00 | 0.00 | 0.00 | 44 | 1018.8 |
| 20260507151547 | 23 | 0 | 0.0 | 4.8 | 0.00 | 0.00 | 0.00 | 43 | 1018.7 |
| 20260507151030 | 23 | 0 | 0.0 | 4.8 | 0.00 | 0.00 | 0.00 | 42 | 1018.9 |
| 20260507150531 | 23 | 351 | 0.0 | 6.4 | 0.00 | 0.00 | 0.00 | 44 | 1018.8 |
| 20260507150045 | 23 | 0 | 0.0 | 6.4 | 0.00 | 0.00 | 0.00 | 45 | 1018.9 |
| 20260507145531 | 23 | 331 | 1.6 | 8.0 | 0.00 | 0.00 | 0.00 | 44 | 1018.9 |
| 20260507145030 | 23 | 349 | 3.2 | 8.0 | 0.00 | 0.00 | 0.00 | 44 | 1019.1 |
| 20260507144542 | 23 | 289 | 1.6 | 6.4 | 0.00 | 0.00 | 0.00 | 45 | 1019.1 |
| 20260507144030 | 24 | 300 | 3.2 | 8.0 | 0.00 | 0.00 | 0.00 | 43 | 1019.1 |
| 20260507143530 | 24 | 324 | 3.2 | 8.0 | 0.00 | 0.00 | 0.00 | 42 | 1019.2 |
| 20260507143043 | 24 | 328 | 3.2 | 8.0 | 0.00 | 0.00 | 0.00 | 44 | 1019.2 |
| 20260507142530 | 23 | 339 | 1.6 | 6.4 | 0.00 | 0.00 | 0.00 | 47 | 1019.2 |
| 20260507142030 | 23 | 232 | 1.6 | 6.4 | 0.00 | 0.00 | 0.00 | 47 | 1019.3 |
| 20260507141539 | 23 | 0 | 0.0 | 6.4 | 0.00 | 0.00 | 0.00 | 47 | 1019.3 |
| 20260507141030 | 23 | 22 | 1.6 | 6.4 | 0.00 | 0.00 | 0.00 | 46 | 1019.2 |
| 20260507140529 | 23 | 0 | 1.6 | 6.4 | 0.00 | 0.00 | 0.00 | 46 | 1019.3 |
| 20260507140101 | 23 | 346 | 0.0 | 6.4 | 0.00 | 0.00 | 0.00 | 48 | 1019.3 |
| 20260507135530 | 23 | 5 | 1.6 | 6.4 | 0.00 | 0.00 | 0.00 | 48 | 1019.1 |
| 20260507135030 | 23 | 360 | 1.6 | 4.8 | 0.00 | 0.00 | 0.00 | 49 | 1019.1 |
| 20260507134546 | 23 | 332 | 1.6 | 6.4 | 0.00 | 0.00 | 0.00 | 49 | 1019.1 |
| 20260507134032 | 23 | 333 | 1.6 | 6.4 | 0.00 | 0.00 | 0.00 | 50 | 1019.2 |
| 20260507133530 | 23 | 0 | 0.0 | 6.4 | 0.00 | 0.00 | 0.00 | 49 | 1019.3 |
| 20260507133043 | 23 | 223 | 3.2 | 9.7 | 0.00 | 0.00 | 0.00 | 45 | 1019.4 |
| 20260507132529 | 23 | 244 | 4.8 | 9.7 | 0.00 | 0.00 | 0.00 | 46 | 1019.3 |
| 20260507132029 | 23 | 234 | 1.6 | 6.4 | 0.00 | 0.00 | 0.00 | 51 | 1019.5 |
| 20260507131546 | 22 | 5 | 0.0 | 3.2 | 0.00 | 0.00 | 0.00 | 54 | 1019.5 |
| 20260507131030 | 22 | 0 | 0.0 | 4.8 | 0.00 | 0.00 | 0.00 | 56 | 1019.5 |
| 20260507130531 | 22 | 0 | 1.6 | 4.8 | 0.00 | 0.00 | 0.00 | 57 | 1019.5 |
| 20260507130042 | 21 | 42 | 0.0 | 4.8 | 0.00 | 0.00 | 0.00 | 59 | 1019.5 |
| 20260507125531 | 21 | 39 | 0.0 | 6.4 | 0.00 | 0.00 | 0.00 | 60 | 1019.3 |
| 20260507125030 | 21 | 53 | 1.6 | 6.4 | 0.00 | 0.00 | 0.00 | 61 | 1019.3 |
| 20260507124540 | 21 | 43 | 3.2 | 9.7 | 0.00 | 0.00 | 0.00 | 61 | 1019.4 |
| 20260507124030 | 21 | 31 | 3.2 | 9.7 | 0.00 | 0.00 | 0.00 | 62 | 1019.3 |
| 20260507123734 | 20 | 36 | 4.8 | 9.7 | 0.00 | 0.00 | 0.00 | 62 | 1019.2 |
| 20260507115033 | 21 | 44 | 4.8 | 14.5 | 0.00 | 0.00 | 0.00 | 59 | 1019.3 |
| 20260507114542 | 21 | 17 | 6.4 | 14.5 | 0.00 | 0.00 | 0.00 | 58 | 1019.2 |
| 20260507114029 | 21 | 10 | 6.4 | 12.9 | 0.00 | 0.00 | 0.00 | 58 | 1019.3 |
| 20260507113531 | 21 | 63 | 6.4 | 17.7 | 0.00 | 0.00 | 0.00 | 58 | 1019.2 |
| 20260507113042 | 21 | 49 | 6.4 | 17.7 | 0.00 | 0.00 | 0.00 | 58 | 1019.3 |
| 20260507112533 | 21 | 339 | 8.0 | 17.7 | 0.00 | 0.00 | 0.00 | 57 | 1019.4 |
| 20260507112032 | 22 | 0 | 6.4 | 14.5 | 0.00 | 0.00 | 0.00 | 59 | 1019.3 |
| 20260507111545 | 22 | 46 | 6.4 | 16.1 | 0.00 | 0.00 | 0.00 | 58 | 1019.3 |
| 20260507111030 | 21 | 56 | 9.7 | 16.1 | 0.00 | 0.00 | 0.00 | 57 | 1019.2 |
| 20260507110529 | 21 | 69 | 8.0 | 16.1 | 0.00 | 0.00 | 0.00 | 58 | 1019.3 |
| 20260507110051 | 21 | 34 | 8.0 | 17.7 | 0.00 | 0.00 | 0.00 | 59 | 1019.4 |
| 20260507105529 | 21 | 35 | 6.4 | 17.7 | 0.00 | 0.00 | 0.00 | 58 | 1019.3 |
| 20260507105031 | 21 | 38 | 4.8 | 14.5 | 0.00 | 0.00 | 0.00 | 60 | 1019.3 |
| 20260507104546 | 21 | 73 | 6.4 | 14.5 | 0.00 | 0.00 | 0.00 | 60 | 1019.3 |
| 20260507104030 | 21 | 67 | 4.8 | 14.5 | 0.00 | 0.00 | 0.00 | 60 | 1019.3 |
| 20260507103529 | 21 | 59 | 6.4 | 14.5 | 0.00 | 0.00 | 0.00 | 61 | 1019.3 |
| 20260507103043 | 21 | 40 | 3.2 | 14.5 | 0.00 | 0.00 | 0.00 | 61 | 1019.4 |
| 20260507102530 | 21 | 83 | 6.4 | 14.5 | 0.00 | 0.00 | 0.00 | 61 | 1019.3 |
| 20260507102029 | 21 | 63 | 6.4 | 16.1 | 0.00 | 0.00 | 0.00 | 60 | 1019.2 |
| 20260507101558 | 21 | 98 | 8.0 | 16.1 | 0.00 | 0.00 | 0.00 | 60 | 1019.2 |
| 20260507101030 | 21 | 57 | 8.0 | 16.1 | 0.00 | 0.00 | 0.00 | 60 | 1019.3 |
| 20260507100529 | 21 | 76 | 6.4 | 17.7 | 0.00 | 0.00 | 0.00 | 61 | 1019.3 |
| 20260507100047 | 21 | 27 | 8.0 | 17.7 | 0.00 | 0.00 | 0.00 | 60 | 1019.3 |
| 20260507095532 | 21 | 54 | 8.0 | 16.1 | 0.00 | 0.00 | 0.00 | 60 | 1019.2 |
| 20260507095030 | 21 | 5 | 8.0 | 16.1 | 0.00 | 0.00 | 0.00 | 59 | 1019.3 |
| 20260507094556 | 21 | 53 | 4.8 | 17.7 | 0.00 | 0.00 | 0.00 | 60 | 1019.2 |
| 20260507094031 | 21 | 71 | 8.0 | 17.7 | 0.00 | 0.00 | 0.00 | 58 | 1019.2 |
| 20260507093531 | 21 | 50 | 9.7 | 17.7 | 0.00 | 0.00 | 0.00 | 57 | 1019.2 |
| 20260507093046 | 21 | 74 | 6.4 | 17.7 | 0.00 | 0.00 | 0.00 | 58 | 1019.2 |
| 20260507092534 | 21 | 35 | 9.7 | 17.7 | 0.00 | 0.00 | 0.00 | 58 | 1019.2 |
| 20260507092029 | 21 | 32 | 6.4 | 16.1 | 0.00 | 0.00 | 0.00 | 60 | 1019.1 |
| 20260507091558 | 21 | 24 | 4.8 | 16.1 | 0.00 | 0.00 | 0.00 | 62 | 1019.2 |
| 20260507091029 | 21 | 34 | 8.0 | 16.1 | 0.00 | 0.00 | 0.00 | 62 | 1019.1 |
| 20260507090533 | 21 | 50 | 8.0 | 19.3 | 0.00 | 0.00 | 0.00 | 63 | 1019.2 |
| 20260507090105 | 20 | 42 | 9.7 | 19.3 | 0.00 | 0.00 | 0.00 | 63 | 1019.3 |
| 20260507085529 | 20 | 36 | 8.0 | 19.3 | 0.00 | 0.00 | 0.00 | 64 | 1019.4 |
| 20260507085030 | 20 | 44 | 9.7 | 19.3 | 0.00 | 0.00 | 0.00 | 64 | 1019.3 |
| 20260507084541 | 20 | 56 | 8.0 | 17.7 | 0.00 | 0.00 | 0.00 | 66 | 1019.4 |
| 20260507084030 | 20 | 34 | 9.7 | 17.7 | 0.00 | 0.00 | 0.00 | 68 | 1019.5 |
| 20260507083529 | 19 | 43 | 8.0 | 20.9 | 0.00 | 0.00 | 0.00 | 68 | 1019.4 |
| 20260507083047 | 19 | 57 | 9.7 | 20.9 | 0.00 | 0.00 | 0.00 | 68 | 1019.5 |
| 20260507082528 | 19 | 61 | 11.3 | 20.9 | 0.00 | 0.00 | 0.00 | 68 | 1019.4 |
| 20260507082030 | 19 | 55 | 11.3 | 19.3 | 0.00 | 0.00 | 0.00 | 68 | 1019.4 |
| 20260507081554 | 19 | 30 | 12.9 | 20.9 | 0.00 | 0.00 | 0.00 | 67 | 1019.3 |
| 20260507081030 | 19 | 45 | 9.7 | 20.9 | 0.00 | 0.00 | 0.00 | 68 | 1019.3 |
| 20260507080529 | 19 | 21 | 9.7 | 22.5 | 0.00 | 0.00 | 0.00 | 69 | 1019.2 |
| 20260507080051 | 19 | 57 | 9.7 | 22.5 | 0.00 | 0.00 | 0.00 | 70 | 1019.2 |
| 20260507075530 | 19 | 14 | 9.7 | 19.3 | 0.00 | 0.00 | 0.00 | 71 | 1019.2 |
| 20260507075031 | 18 | 75 | 9.7 | 22.5 | 0.00 | 0.00 | 0.00 | 71 | 1019.2 |
| 20260507074544 | 18 | 47 | 9.7 | 24.1 | 0.00 | 0.00 | 0.00 | 71 | 1019.2 |
| 20260507074031 | 18 | 43 | 9.7 | 24.1 | 0.00 | 0.00 | 0.00 | 69 | 1019.3 |
| 20260507073530 | 18 | 10 | 12.9 | 24.1 | 0.00 | 0.00 | 0.00 | 68 | 1019.2 |
| 20260507073058 | 18 | 51 | 9.7 | 22.5 | 0.00 | 0.00 | 0.00 | 68 | 1019.2 |
| 20260507072529 | 18 | 26 | 12.9 | 20.9 | 0.00 | 0.00 | 0.00 | 67 | 1019.2 |
| 20260507072029 | 18 | 67 | 11.3 | 20.9 | 0.00 | 0.00 | 0.00 | 67 | 1019.1 |
| 20260507071546 | 18 | 54 | 12.9 | 20.9 | 0.00 | 0.00 | 0.00 | 67 | 1019.2 |
| 20260507071030 | 19 | 52 | 11.3 | 19.3 | 0.00 | 0.00 | 0.00 | 67 | 1019.2 |
| 20260507070530 | 19 | 42 | 9.7 | 19.3 | 0.00 | 0.00 | 0.00 | 69 | 1019.2 |
| 20260507070121 | 19 | 22 | 8.0 | 17.7 | 0.00 | 0.00 | 0.00 | 70 | 1019.2 |
| 20260507065529 | 19 | 25 | 9.7 | 17.7 | 0.00 | 0.00 | 0.00 | 71 | 1019.1 |
| 20260507065029 | 18 | 48 | 9.7 | 22.5 | 0.00 | 0.00 | 0.00 | 72 | 1019.3 |
| 20260507064549 | 18 | 22 | 8.0 | 22.5 | 0.00 | 0.00 | 0.00 | 72 | 1019.2 |
| 20260507064030 | 18 | 34 | 9.7 | 19.3 | 0.00 | 0.00 | 0.00 | 72 | 1019.2 |